Regional Weather Roundup
Issued by NWS Boston, MA

Home | Current Version | Previous Version | Text Only | Print | Product List | Glossary On
Versions: 1 2 3 4 5 6 7 8 9 10 11 12 13 14 15 16 17 18 19 20 21 22 23 24 25 26 27 28 29 30 31 32 33 34 35 36 37 38 39 40 41 42 43 44 45 46 47 48 49 50
773
ASUS41 KBOX 222210
RWRBOX

REGIONAL WEATHER ROUNDUP
NATIONAL WEATHER SERVICE TAUNTON MA
500 PM EST MON JAN 22 2018

NOTE:  "FAIR" INDICATES FEW OR NO CLOUDS BELOW 12,000 FEET WITH NO
SIGNIFICANT WEATHER AND/OR OBSTRUCTIONS TO VISIBILITY.

MAZALL-222300-
EASTERN MASSACHUSETTS

CITY           SKY/WX    TMP DP  RH WIND       PRES   REMARKS
BOSTON         CLOUDY    38  37  97 NE12      30.26F FOG     WCI  30
BEVERLY        CLOUDY    37  37 100 NE10      30.27S FOG     WCI  30
LAWRENCE       CLOUDY    35  31  85 NE14G23   30.29F FOG     WCI  26
BEDFORD        CLOUDY    35  34  96 NE8       30.26S FOG     WCI  29
BLUE HILL        N/A     35  35 100 NE9       30.22S WCI  28
NORWOOD        CLOUDY    40  37  89 NE5       30.26S FOG
MARSHFIELD     CLOUDY    39  37  93 E5        30.26S
PLYMOUTH       CLOUDY    39  36  89 E6        30.25S FOG
TAUNTON        CLOUDY    39  38  96 CALM      30.24F FOG
NEW BEDFORD    CLOUDY    38  38 100 E7        30.23F FOG
$$

MAZALL-222300-
CAPE COD AND THE ISLANDS

CITY           SKY/WX    TMP DP  RH WIND       PRES   REMARKS
FALMOUTH       CLOUDY    37  37 100 E8        30.26  FOG     WCI  31
HYANNIS        FOG       38  38 100 NE3       30.25R VSB 1
CHATHAM        CLOUDY    39  39 100 NE6       30.27S FOG
PROVINCETOWN   CLOUDY    39  36  89 E3        30.27S
NANTUCKET      CLOUDY    40  40 100 E9        30.25R FOG
MARTHAS VNYRD  CLOUDY   N/A N/A N/A E10       30.23F FOG
$$

MAZALL-222300-
CENTRAL AND WESTERN MASSACHUSETTS

CITY           SKY/WX    TMP DP  RH WIND       PRES   REMARKS
WORCESTER      FOG       32  31  96 NE10      30.21R VSB 1/4 WCI  24
FITCHBURG      CLOUDY    35  33  92 NE7       30.28R FOG     WCI  29
ORANGE         CLOUDY    34  32  92 E9        30.24R WCI  27
SPRINGFIELD    CLOUDY    36  35  94 NE3       30.20S FOG
WESTFIELD      CLOUDY    37  36  96 NE6       30.21S FOG
NORTH ADAMS    CLOUDY    36  32  85 E13       30.16S WCI  27
PITTSFIELD     CLOUDY    36  33  89 E5        30.13S FOG
$$

RIZALL-222300-
RHODE ISLAND

CITY           SKY/WX    TMP DP  RH WIND       PRES   REMARKS
PROVIDENCE     CLOUDY    39  38  96 NE8       30.24R FOG
NEWPORT        CLOUDY    39  38  96 E8        30.21F
BLOCK ISLAND   CLOUDY    38  37  97 E12       30.22R FOG     WCI  30
SMITHFIELD     CLOUDY   N/A N/A N/A NE8       30.23  FOG
WESTERLY       CLOUDY    41  39  93 NE12      30.21S FOG
$$

CTZALL-222300-
CONNECTICUT

CITY           SKY/WX    TMP DP  RH WIND       PRES   REMARKS
BRADLEY INTL   CLOUDY    38  37  97 NE6       30.20S FOG
HARTFORD       CLOUDY    41  38  89 NE7       30.20S FOG
BRIDGEPORT     CLOUDY    39  36  89 E10       30.18R FOG
DANBURY        CLOUDY    40  37  89 E7        30.16S FOG
GROTON         CLOUDY    42  36  79 E7        30.20R
NEW HAVEN      CLOUDY    44  39  82 E7        30.17R
CHESTER        CLOUDY    41  37  87 VRB6G13   30.18R
MERIDEN        CLOUDY    39  36  89 N3        30.19R FOG
WILLIMANTIC    CLOUDY    39  36  89 NE7       30.21F
OXFORD         FOG       37  37 100 E7        30.16S VSB 1/2
$$

MEZ002-015-021-024-NHZ003-005-008-011-012-014-VTZ005-008-222300-
NORTHERN NEW ENGLAND

CITY           SKY/WX    TMP DP  RH WIND       PRES   REMARKS
PORTLAND ME    CLOUDY    23  21  92 NE14      30.38F WCI  11
BANGOR ME      CLOUDY    20   8  60 CALM      30.42F
CONCORD NH     CLOUDY    28  23  81 E10       30.30F WCI  19
MANCHESTER NH  CLOUDY    29  27  92 NE9       30.29S WCI  20
NASHUA NH      LGT SNOW  30  30 100 VRB7      30.30S FOG     WCI  23
PORTSMOUTH NH  LGT SNOW  29  27  93 NE13      30.31  FOG     WCI  19
JAFFREY NH     CLOUDY    31  30  96 VRB3      30.23R FOG
KEENE NH       LGT RAIN  33  29  85 E5        30.24R WCI  29
BURLINGTON VT  FLURRIES  24  18  77 N5        30.17F WCI  18
MT. WASHINGTON FOG       21  21 100 SW24        N/A  VSB 0   WCI   4
$$

NYZ052-076-222300-
EASTERN NEW YORK

CITY           SKY/WX    TMP DP  RH WIND       PRES   REMARKS
ALBANY         LGT RAIN  34  28  79 NE5       30.13F WCI  30
NEW YORK CITY  CLOUDY    40  36  86 NE13      30.15R
$$

ANZALL-222300-
MARINE OBSERVATIONS

STATION/POSITION TIME  TEMP    WIND        PRES    VSBY  WAVE
                       AIR SEA DIR/SP/G                  HT/PER
                 (UTC) (F)     (DEG/KT/KT) (MB)    (MI)  (FT/S)
BOSTON BUOY      2150   40 40   40/  4/  6 1024.3R         4/ 6
BUZZARDS BAY     2100   36      50/ 15/ 16 1024.1R
NANTUCKET SOUND  2150   38 37   60/ 10/ 12 1024.3S         1
MASS BAY-STELLWA 2104   39 39              1023.2F         6/ 6
ISLE OF SHOALS   2100   34      50/ 28/ 31 1024.8F
S OF BLOCK IS    2143      41                N/A           3/ 3
$$

......................KEY.........................
  SKY/WX - SKY CONDITION/PRESENT WEATHER
  TMP    - TEMPERATURE IN FAHRENHEIT
  DWPT   - DEWPOINT IN FAHRENHEIT
  RH     - RELATIVE HUMIDITY IN PERCENT
  WIND   - DIRECTION AND SPEED IN MPH
  PRES   - MEAN SEA LEVEL PRESSURE IN INCHES OF HG
  WCI    - WIND CHILL INDEX
  VSB    - VISIBILITY IN MILES
  HX     - HEAT INDEX
  TC     - TEMPERATURE IN CELSIUS
  VRB    - VARIABLE WIND DIRECTION
  N/A    - NOT AVAILABLE




USA.gov is the U.S. government's official web portal to all federal, state and local government web resources and services.